Terminal Aerodrome Forecast
Issued by NWS

Home | Current Version | Previous Version | Text Only | Print | Product List | Glossary On
Versions: 1 2 3 4 5 6 7 8 9 10 11 12 13 14 15 16 17 18 19 20 21 22 23 24 25 26 27 28 29 30 31 32 33 34 35 36 37 38 39 40
000
FTUS41 KRNK 011549 AAA
TAFBCB
TAF AMD
KBCB 011549Z 0116/0212 28010G18KT P6SM SCT050
     FM012100 31009KT P6SM FEW060
     FM012300 30003KT P6SM SKC=

USA.gov is the U.S. government's official web portal to all federal, state and local government web resources and services.